Weather in Molodezhnyy

Russia / Tomsk District     59°55′29″N   81°43′15″E
temp.,
°C
wind,
m/s
gust,
m/s
humid.,
%
clouds,
%
prec.,
mm/h
press.,
hPa
HPBL,
m
8 march, mon
mon801:00−15ssw229869 0.1 101420
04:00−15sse2596100 0.0 1013100
07:00−11se51294100 0.1 1009552
10:00−8se71394100 2.9 999899
13:00−4sse71594100 5.0 993858
16:000s91790100 1.7 9891502
19:00−8w81484100 2.9 9921064
22:00−11w61488100 0.1 998979
9 march, tue
tue901:00−13w61490100 0.1 1003699
04:00−16w51292100 0.0 1007496
07:00−18wsw4119499 0.0 1010349
10:00−15wsw4992100 0.0 1012599
13:00−11sw4788100 0.1 1012904
16:00−10sw4889100 0.2 1013867
19:00−11ssw3993100 0.3 1012575
22:00−10s3995100 0.3 1011505
10 march, wed
wed1001:00−11s3895100 0.4 1009442
04:00−11s4995100 1.1 1006673
07:00−10sw41094100 1.9 1006692
10:00−9wsw4993100 0.2 1007564
13:00−7sw4791100 0.3 1008669
16:00−6sw5890100 0.2 1009872
19:00−7sw2594100 0.4 1010166
22:00−10s1195100 0.0 100921
11 march, thu
thu1101:00−10ene2297100 0.2 100762
04:00−9ene3696100 0.5 1004233
07:00−10ne4995100 1.3 1000424
10:00−11nne5995100 0.9 998419
13:00−11n3695100 1.8 999413
16:00−10nnw3494100 0.8 1003398
19:00−13nnw2496100 1.0 1005192
22:00−16ne2297100 0.1 100770
12 march, fri
fri1201:00−15e2397100 0.4 1008112
04:00−14sse1497100 0.4 1008157
07:00−15ssw3896100 0.5 1007269
10:00−15ssw3596100 0.1 1007255
13:00−13sw3593100 0.1 1007462
16:00−12sw4689100 0.1 1008788
19:00−13wsw3694100 0.3 1010365
22:00−16w229798 0.1 101166